Wind_Speed
29 29 29 29 27 25 25 22 20 19 19 18 12 12 14 10 9 7 7 12 11 9 6 9 9 9 8 6 4 9 12 11 16 17 13 18 17 17 25 25 20 20 17
30 30 29 28 25 25 24 22 21 20 17 15 12 13 13 10 11 9 7 11 11 7 9 10 9 8 6 5 8 9 8 12 15 16 17 17 18 20 18 27 19 23 16
30 32 30 29 27 25 23 21 22 19 15 12 16 14 14 12 11 11 10 10 8 8 10 9 9 8 8 8 8 10 11 12 11 14 17 16 14 16 23 18 21 18 14
33 32 34 32 29 26 24 22 20 18 17 15 19 17 15 13 13 14 11 11 9 10 10 8 9 9 10 9 11 12 13 13 12 12 12 14 13 19 19 19 25 19 22
35 34 35 33 31 26 26 24 23 21 19 21 21 18 17 15 13 15 12 12 10 10 9 7 9 11 7 12 11 12 14 14 14 15 13 13 16 21 18 22 25 22 23
37 37 35 34 33 30 28 26 26 25 17 25 23 19 18 15 17 15 13 13 10 9 9 7 9 10 12 16 15 13 14 16 17 17 17 17 21 22 21 23 22 22 25
40 38 36 35 34 33 31 31 31 30 22 25 27 22 21 20 18 14 15 14 12 9 9 8 1 10 14 13 13 13 12 12 12 15 19 22 22 17 20 24 25 23 24
42 41 39 37 37 35 34 35 33 32 30 32 31 25 23 24 19 16 16 16 13 12 11 9 8 13 10 11 12 11 11 9 11 16 21 15 13 19 20 21 24 24 24
44 44 42 40 40 38 37 36 35 34 34 35 36 29 26 26 21 18 18 17 15 12 11 11 10 11 9 11 11 11 11 11 11 10 10 14 14 14 19 21 20 22 28
45 45 44 43 43 42 38 37 36 38 38 39 36 33 29 29 23 20 18 16 14 11 11 9 8 9 9 10 10 11 12 12 10 9 11 14 14 16 16 14 20 20 22
45 45 45 45 45 42 39 39 38 41 39 37 34 33 31 32 26 20 19 17 15 13 13 13 11 8 11 11 9 10 11 11 9 10 15 15 14 15 15 19 17 18 24
45 45 45 46 46 42 41 40 41 41 39 35 33 32 31 31 28 24 22 19 19 15 8 15 17 13 13 10 8 10 9 8 11 11 12 13 16 18 20 19 19 19 20
46 45 46 45 45 42 42 43 43 42 40 37 33 32 31 32 30 28 24 20 19 20 19 20 17 13 11 8 6 8 9 8 11 8 13 14 16 18 18 19 20 21 21
45 47 46 46 45 42 42 44 43 44 44 36 36 36 35 34 32 31 27 24 22 21 22 18 16 14 7 4 5 7 12 9 12 12 13 14 16 17 18 21 21 24 22
42 45 47 47 46 44 46 46 45 45 41 32 34 32 36 36 33 29 27 24 21 19 18 17 13 7 2 4 4 6 8 8 11 13 9 14 15 17 19 18 22 23 24
41 43 44 43 45 43 48 46 44 41 38 30 34 33 32 30 26 23 23 22 20 18 18 11 6 4 8 8 8 6 5 8 13 9 10 12 15 17 18 20 21 20 25
42 41 41 42 40 47 49 48 44 38 28 30 29 25 27 28 25 22 18 21 19 17 17 13 11 12 12 10 8 5 6 9 9 9 8 12 15 17 17 20 21 23 25
42 42 41 43 39 46 43 43 42 44 40 35 33 31 30 27 26 23 20 21 22 21 19 13 13 14 13 11 9 7 9 5 7 10 7 11 14 15 18 20 21 24 26
38 38 40 37 40 44 35 32 36 37 38 36 39 39 35 30 27 24 22 23 22 21 20 17 13 14 14 13 11 10 6 2 6 8 8 10 12 14 16 18 21 21 20
30 34 36 36 36 36 35 35 32 36 41 41 40 42 41 37 36 33 30 27 23 18 16 14 17 17 13 13 11 7 2 2 4 4 7 8 11 13 15 17 19 22 17
27 31 34 33 33 35 35 38 36 41 45 40 40 45 46 42 40 36 32 29 25 17 14 17 17 15 17 15 10 4 2 1 5 5 4 6 8 11 14 16 17 19 21
25 27 34 32 32 33 33 33 29 29 29 33 34 39 41 42 39 36 32 29 27 22 20 20 16 14 9 6 8 7 5 3 6 4 3 8 9 11 14 16 18 19 18
21 25 27 30 28 26 28 27 28 29 27 29 29 31 32 40 37 32 29 29 27 23 21 20 17 13 14 18 15 9 5 9 7 2 6 7 8 9 12 15 17 18 19
17 24 24 29 26 25 28 27 26 26 27 28 28 27 27 32 25 23 22 23 24 25 24 22 19 18 19 13 10 10 13 9 6 4 6 6 8 6 10 14 14 16 18
11 22 25 25 23 23 24 24 23 25 28 29 28 26 23 25 27 25 22 24 27 25 23 20 20 20 21 11 12 12 10 7 4 7 7 7 5 10 9 12 14 16 19
10 18 22 21 26 26 22 21 22 26 26 27 25 24 21 16 28 23 27 27 26 24 23 21 22 23 20 21 17 11 9 7 6 9 10 6 5 9 8 11 12 15 18
Wind_Direction
216 214 218 224 225 222 222 228 235 238 237 253 266 251 266 260 267 257 268 280 303 317 316 324 333 343 350 331 342 302 311 299 311 315 337 337 350 332 324 333 343 348 337
212 208 217 222 221 223 221 227 238 245 250 257 254 250 254 254 264 262 274 262 294 317 296 311 317 322 335 311 312 299 324 310 306 328 335 346 345 332 316 324 343 326 336
213 208 216 221 221 221 221 224 235 240 247 251 249 248 249 253 263 255 259 277 273 259 277 295 312 323 326 328 325 319 306 324 332 327 331 326 333 317 308 332 323 333 336
215 215 214 221 221 220 220 226 231 233 241 241 243 248 244 253 256 253 262 272 267 266 288 290 304 323 327 332 326 323 325 330 331 326 321 320 319 306 324 332 330 343 332
214 218 219 221 223 220 221 223 231 234 243 246 244 247 244 247 256 251 260 274 265 266 285 301 315 320 338 335 327 330 335 341 345 343 336 328 320 334 340 329 335 340 347
214 220 220 221 221 220 219 223 224 234 253 236 243 246 251 244 242 253 254 268 267 265 275 291 312 325 323 340 331 334 335 343 344 341 339 332 335 334 336 343 345 348 347
214 221 221 222 223 220 221 223 229 235 233 234 241 248 251 240 246 244 245 253 262 262 264 274 62 280 296 314 317 327 332 326 338 328 325 330 331 351 352 348 349 347 339
213 221 223 223 226 223 223 225 231 236 233 235 237 246 243 242 237 235 240 247 248 249 252 263 261 262 298 313 320 331 332 335 318 315 318 329 351 358 349 338 333 337 333
216 220 225 225 226 225 226 229 233 232 235 236 239 243 242 241 232 228 234 239 247 243 245 252 267 287 309 317 323 331 332 338 331 338 7 6 352 344 341 325 335 338 328
219 222 226 228 228 228 230 233 234 233 238 239 240 244 241 238 226 224 232 231 242 251 253 275 271 283 303 311 323 332 336 343 348 8 12 1 359 343 340 341 338 328 323
223 225 227 230 232 233 234 234 232 233 237 237 240 243 237 234 222 222 231 224 227 253 254 287 291 284 302 307 322 329 338 352 7 6 3 342 329 332 331 332 337 328 323
229 228 229 230 231 232 230 229 230 235 236 230 236 240 234 229 217 219 224 216 215 226 230 240 264 279 289 295 317 335 348 355 360 358 341 331 334 337 337 342 336 334 336
227 230 230 231 230 229 226 226 226 227 228 228 237 235 234 226 217 217 220 216 215 214 221 235 251 266 282 293 333 355 3 1 338 352 335 336 340 339 334 335 338 347 338
233 229 227 227 226 222 220 228 229 225 223 229 235 237 226 227 217 217 219 216 216 221 227 237 249 265 268 351 354 346 338 345 338 340 328 340 335 335 342 337 349 342 342
233 228 223 222 221 214 220 228 228 232 237 236 240 234 224 226 226 224 226 220 219 223 227 238 240 244 275 322 325 300 313 305 321 311 348 335 334 338 342 356 349 345 346
228 219 214 209 211 207 218 223 223 231 233 241 233 232 221 228 230 228 219 213 215 218 219 218 252 245 242 240 257 276 304 293 296 336 341 336 339 341 346 353 348 346 348
227 214 207 205 205 210 215 221 211 219 214 222 219 220 207 215 216 219 206 203 209 208 208 211 204 231 236 238 248 249 264 278 325 326 338 341 338 342 356 349 350 346 347
227 213 206 204 206 214 216 221 218 218 213 203 202 205 205 215 218 215 210 205 204 207 209 195 218 229 231 232 238 235 247 266 287 321 5 340 339 352 352 349 349 349 352
214 208 207 206 211 214 204 209 213 211 207 209 202 202 201 207 216 215 216 217 214 214 210 200 204 224 227 231 236 247 267 267 332 12 349 336 354 355 348 348 351 355 358
213 209 208 203 204 210 196 193 197 200 200 213 210 211 198 199 204 206 210 210 212 213 204 185 211 224 220 218 227 234 229 307 307 302 314 359 1 352 352 355 357 359 5
216 213 209 202 205 201 191 194 201 199 202 214 210 212 213 208 210 212 211 208 202 187 197 200 219 230 226 236 217 206 162 275 272 292 335 28 357 353 359 356 0 3 350
216 213 207 201 208 197 198 193 199 197 200 200 202 209 206 212 216 218 214 209 201 182 202 207 202 220 230 221 204 181 190 217 251 284 20 21 353 2 5 1 3 5 358
217 213 199 201 204 199 196 192 199 201 194 195 194 205 200 206 215 218 211 206 196 184 197 206 185 199 195 208 223 193 162 218 249 321 90 16 351 10 12 5 7 6 359
234 213 207 204 204 190 190 192 195 197 195 197 202 209 205 200 200 209 207 192 184 190 197 203 179 200 209 218 200 172 212 230 200 183 131 73 346 15 23 8 15 8 6
246 200 197 204 196 193 190 194 193 193 194 192 204 214 210 209 186 203 204 186 191 191 194 193 177 203 215 194 194 202 223 237 204 160 136 99 16 351 34 16 19 14 11
216 200 201 204 196 187 191 188 187 193 191 196 198 217 216 222 183 201 196 192 194 191 194 186 188 207 215 194 216 210 212 204 176 150 134 97 44 4 42 25 24 24 16
Height
1527 1531 1535 1539 1544 1549 1552 1555 1557 1558 1560 1560 1560 1560 1560 1558 1558 1558 1558 1557 1555 1555 1553 1551 1550 1548 1546 1545 1545 1543 1542 1539 1536 1533 1532 1530 1527 1524 1521 1517 1514 1510 1508
1522 1527 1530 1534 1539 1543 1546 1550 1552 1553 1555 1557 1558 1558 1557 1556 1556 1556 1556 1554 1553 1552 1552 1550 1548 1546 1544 1543 1542 1540 1539 1536 1534 1531 1530 1528 1526 1524 1520 1517 1512 1510 1507
1517 1522 1525 1529 1533 1537 1541 1545 1547 1550 1553 1555 1555 1555 1554 1553 1553 1554 1554 1553 1552 1551 1549 1547 1546 1544 1542 1540 1539 1537 1535 1534 1532 1529 1527 1526 1525 1521 1515 1512 1510 1507 1504
1512 1516 1520 1523 1527 1532 1537 1540 1543 1547 1548 1548 1547 1549 1549 1548 1549 1550 1551 1551 1550 1548 1547 1546 1543 1541 1539 1538 1537 1535 1534 1531 1529 1527 1525 1524 1521 1517 1515 1511 1505 1503 1500
1506 1510 1513 1518 1522 1528 1532 1536 1538 1540 1542 1541 1541 1541 1543 1544 1545 1546 1547 1548 1547 1546 1544 1542 1540 1539 1537 1537 1535 1533 1530 1529 1527 1524 1522 1520 1517 1514 1511 1508 1504 1500 1497
1500 1502 1508 1512 1517 1522 1526 1530 1532 1533 1535 1532 1534 1536 1538 1539 1539 1542 1544 1544 1543 1543 1541 1540 1539 1536 1536 1534 1533 1531 1529 1527 1525 1523 1521 1518 1515 1512 1509 1507 1502 1499 1494
1494 1498 1502 1506 1511 1515 1520 1523 1524 1525 1532 1530 1530 1532 1534 1535 1536 1538 1540 1541 1541 1540 1539 1538 1538 1534 1533 1533 1532 1530 1527 1525 1523 1521 1518 1516 1513 1512 1509 1506 1503 1500 1497
1489 1492 1496 1500 1504 1509 1513 1515 1518 1520 1523 1524 1524 1527 1529 1530 1533 1535 1536 1538 1538 1536 1536 1535 1534 1531 1532 1531 1529 1528 1525 1524 1522 1519 1517 1515 1514 1511 1508 1506 1503 1499 1496
1481 1484 1488 1492 1496 1501 1504 1508 1511 1513 1515 1516 1517 1521 1523 1524 1528 1531 1532 1534 1533 1533 1533 1531 1530 1530 1530 1529 1527 1525 1523 1521 1520 1518 1516 1514 1511 1509 1508 1504 1502 1498 1493
1472 1475 1480 1484 1488 1492 1496 1500 1503 1504 1507 1508 1512 1514 1517 1519 1522 1525 1528 1529 1528 1529 1529 1529 1529 1528 1527 1526 1524 1522 1521 1518 1517 1516 1515 1513 1510 1509 1505 1503 1500 1497 1493
1465 1470 1473 1476 1480 1485 1490 1493 1496 1495 1499 1502 1504 1507 1510 1512 1517 1520 1523 1524 1525 1526 1525 1525 1525 1525 1524 1523 1521 1520 1518 1517 1515 1513 1511 1511 1510 1508 1505 1502 1498 1495 1490
1460 1464 1466 1469 1473 1478 1482 1485 1487 1489 1491 1496 1499 1502 1504 1506 1510 1515 1518 1521 1522 1523 1524 1523 1522 1522 1522 1520 1519 1518 1516 1515 1513 1511 1512 1509 1507 1504 1503 1499 1496 1493 1490
1451 1454 1459 1463 1466 1471 1473 1476 1478 1481 1484 1489 1493 1495 1498 1501 1507 1509 1512 1515 1518 1519 1519 1519 1520 1520 1519 1518 1517 1517 1515 1514 1512 1511 1509 1508 1506 1504 1501 1498 1494 1490 1486
1443 1446 1450 1454 1457 1463 1465 1466 1470 1472 1474 1481 1482 1486 1487 1491 1497 1503 1505 1508 1511 1513 1515 1517 1518 1518 1518 1518 1516 1515 1514 1512 1511 1510 1509 1507 1505 1501 1498 1495 1490 1487 1483
1435 1438 1441 1444 1448 1454 1456 1458 1461 1462 1466 1475 1478 1475 1480 1483 1489 1496 1500 1502 1506 1509 1512 1512 1514 1516 1516 1515 1515 1514 1513 1513 1510 1507 1506 1505 1501 1499 1496 1493 1490 1486 1482
1427 1430 1432 1436 1439 1445 1445 1448 1452 1454 1458 1467 1463 1469 1470 1476 1485 1492 1496 1499 1503 1505 1507 1509 1511 1513 1514 1514 1514 1513 1513 1511 1508 1506 1505 1504 1501 1497 1495 1491 1488 1484 1480
1416 1421 1425 1429 1431 1431 1434 1440 1446 1452 1456 1458 1465 1473 1475 1470 1477 1486 1490 1495 1497 1500 1503 1506 1508 1510 1510 1510 1510 1510 1509 1508 1506 1505 1503 1503 1500 1497 1494 1491 1488 1484 1479
1409 1413 1418 1421 1425 1422 1428 1434 1439 1442 1447 1449 1457 1465 1467 1479 1476 1481 1485 1489 1491 1493 1498 1501 1504 1505 1507 1507 1506 1506 1505 1505 1504 1503 1502 1501 1500 1497 1495 1491 1487 1483 1478
1402 1407 1412 1416 1417 1415 1423 1428 1433 1441 1447 1449 1450 1455 1460 1471 1475 1477 1481 1484 1487 1490 1492 1496 1500 1501 1501 1502 1502 1502 1503 1502 1501 1500 1500 1498 1496 1495 1492 1489 1487 1483 1478
1399 1402 1406 1410 1411 1412 1416 1421 1426 1432 1434 1436 1452 1457 1451 1461 1464 1467 1472 1477 1481 1485 1489 1492 1494 1496 1499 1500 1499 1499 1499 1500 1500 1499 1497 1496 1497 1495 1492 1489 1486 1482 1477
1396 1399 1401 1407 1407 1408 1413 1414 1423 1423 1418 1420 1434 1438 1451 1455 1457 1461 1466 1471 1476 1480 1486 1489 1490 1492 1493 1495 1496 1497 1498 1500 1499 1499 1496 1494 1493 1492 1492 1489 1486 1483 1479
1392 1396 1397 1403 1401 1407 1410 1414 1421 1426 1434 1423 1431 1429 1444 1452 1453 1457 1461 1466 1473 1477 1482 1486 1489 1489 1491 1493 1493 1495 1497 1499 1497 1498 1497 1497 1495 1492 1491 1489 1486 1483 1478
1390 1391 1393 1399 1398 1404 1409 1414 1419 1424 1430 1432 1434 1429 1437 1445 1449 1453 1458 1462 1468 1474 1477 1480 1485 1488 1489 1488 1490 1493 1496 1495 1495 1494 1497 1498 1495 1492 1489 1488 1487 1484 1478
1385 1387 1390 1396 1397 1401 1405 1411 1415 1420 1424 1430 1430 1431 1438 1444 1450 1453 1456 1459 1465 1469 1472 1476 1480 1482 1482 1485 1486 1487 1489 1490 1490 1492 1492 1492 1493 1492 1490 1487 1485 1484 1481
1382 1384 1389 1394 1396 1400 1403 1408 1413 1417 1422 1426 1424 1429 1436 1442 1449 1455 1459 1459 1462 1465 1468 1472 1476 1477 1480 1482 1482 1484 1486 1487 1487 1487 1490 1490 1490 1490 1489 1487 1484 1483 1481
1381 1383 1386 1389 1391 1395 1401 1406 1410 1415 1418 1421 1422 1425 1433 1438 1446 1455 1458 1460 1461 1464 1465 1469 1472 1473 1476 1478 1479 1483 1484 1485 1486 1487 1488 1490 1490 1490 1490 1489 1486 1483 1482